{"data":{"norad_id":51656,"intl_designator":"2022-013A","name":"EOS-4","alt_names":[],"object_type":"PAYLOAD","status":"ACTIVE","operator":null,"country":"IND","launch_date":"2022-02-14","launch_site_code":"SRILR","launch_vehicle":null,"mission":null,"orbit_class":"UNKNOWN","rcs_meters":null,"size_class":null,"mass_kg":null,"dimensions":null,"purposes":[],"wikipedia_slug":null,"has_3d_model":false,"image_url":null,"decayed_at":null,"tle_current":{"epoch":"2026-05-25T06:40:28.120800Z","epoch_age_seconds":48482,"freshness":"FRESH","line1":"1 51656U 22013A   26145.27810325  .00000993  00000+0  60354-4 0  9999","line2":"2 51656  97.5116 152.2781 0001744  96.3057 263.8373 15.12721980236027","mean_motion":15.1272198,"eccentricity":0.0001744,"inclination_deg":97.5116,"raan_deg":152.2781,"arg_perigee_deg":96.3057,"mean_anomaly_deg":263.8373,"bstar":6.0354e-5,"rev_number":23602,"period_min":95.192640752136,"perigee_km":526.69869788843,"apogee_km":529.10752467925,"semimajor_km":6906.0401112838,"source":"CELESTRAK","updated_at":"2026-05-25T13:37:57.471759Z"}}}